Flag for Germany Weather past 2 weeks in Bad Oldesloe, Schleswig-Holstein, Germany

Now
75 °F

Passing clouds.


Feels Like: 78 °F
Forecast: 63 / 91 °F
Wind: 9 mph from South

Location: Luebeck-Blankensee

Current Time: Jul 3, 2015 at 10:20:39 AM

Latest Report: Jul 3, 2015 at 9:50 AM


Visibility: N/A

Pressure: 30.27 "Hg

Humidity: 54%

Dew point: 57 °F

Location of Bad OldesloeLocation

Historic Weather in Bad Oldesloe — Graph

°F

Bad Oldesloe temperature yesterday

Maximum temperature yesterday: 88 °F (at 3:50 PM)
Minimum temperature yesterday: 66 °F (at 6:50 AM)
Average temperature yesterday: 81 °F

Past Weeks' High & Low Weather Summary

 TemperatureHumidityPressure
High88 °F (Jul 2, 3:50 PM)94% (Jun 19, 8:50 AM)30.27 "Hg (Jun 19, 8:50 AM)
Low50 °F (Jun 18, 11:20 PM)29% (Jul 2, 3:50 PM)29.65 "Hg (Jun 22, 8:20 PM)
Average64 °F64%30.02 "Hg
* Reported Jun 18 9:20 AM — Jul 3 9:20 AM, Bad Oldesloe, Weather by CustomWeather, © 2015

Note: Actual official high and low records may vary slightly from our data, if they occured in-between our weather recording intervals... More about our weather records

Advertising

Bad Oldesloe weather history for previous 24 hours

 ConditionsComfort  
Time TempWeatherWind HumidityBarometerVisibility
9:20 AM
Fri, Jul 3
73 °FPassing clouds.9 mph53%30.27 "HgN/A
8:50 AM73 °FPassing clouds.8 mph57%30.27 "HgN/A
8:20 AM73 °FPassing clouds.6 mph53%30.27 "HgN/A
7:50 AM70 °FSunny.7 mph60%30.24 "Hg10 mi
7:20 AM70 °FPassing clouds.3 mph60%30.27 "HgN/A
6:50 AM68 °FSunny.3 mph64%30.27 "Hg10 mi
9:50 PM
Thu, Jul 2
77 °FSunny.8 mph54%30.21 "Hg10 mi
9:20 PM79 °FSunny.8 mph51%30.18 "Hg10 mi
8:50 PM82 °FPassing clouds.7 mph37%30.18 "HgN/A
8:20 PM84 °FSunny.7 mph33%30.18 "Hg10 mi
7:50 PM86 °FPassing clouds.9 mph31%30.18 "HgN/A
7:20 PM86 °FPassing clouds.9 mph29%30.18 "HgN/A
6:50 PM88 °FPassing clouds.9 mph29%30.18 "HgN/A
6:20 PM88 °FPassing clouds.8 mph29%30.18 "HgN/A
5:50 PM88 °FPassing clouds.10 mph29%30.18 "HgN/A
5:20 PM88 °FPassing clouds.9 mph29%30.21 "HgN/A
4:50 PM88 °FPassing clouds.8 mph29%30.21 "HgN/A
4:20 PM88 °FPassing clouds.10 mph29%30.21 "HgN/A
3:50 PM88 °FPassing clouds.13 mph29%30.21 "HgN/A
3:20 PM86 °FPassing clouds.13 mph31%30.21 "HgN/A
2:50 PM86 °FPassing clouds.12 mph31%30.21 "HgN/A
2:20 PM86 °FPassing clouds.13 mph31%30.21 "HgN/A
1:50 PM86 °FPassing clouds.12 mph31%30.21 "HgN/A
1:20 PM86 °FPassing clouds.10 mph35%30.21 "HgN/A
12:50 PM84 °FPassing clouds.13 mph35%30.24 "HgN/A
12:20 PM82 °FPassing clouds.10 mph40%30.24 "HgN/A
11:50 AM81 °FPassing clouds.10 mph39%30.24 "HgN/A
11:20 AM82 °FPassing clouds.9 mph40%30.24 "HgN/A
10:50 AM81 °FPassing clouds.9 mph42%30.24 "HgN/A
10:20 AM77 °FPassing clouds.12 mph47%30.24 "HgN/A
Weather by CustomWeather, © 2015

See weather overviewHow to use our weather pages